Simultaneous Nadir Overpasses (SNOs) Predictions

Prediction of SNOs between GOES-17 and AQUA Satellite Orbit:

Table of predicted SNOs for the next 14.0 days since TLE Epoch: 11/7/2025
Index Date Time (GOES-17) GOES-17 Lat,Lon AQUA Lat,Lon Distance(km) Time Diff (sec)
1 11/08/2025 20:41:12 -0.00, -89.49 0.76, -85.83 416.03 80
2 11/09/2025 09:02:50 0.04, -89.51 0.25, -90.41 102.87 80
3 11/11/2025 08:39:08 0.01, -89.50 -0.88, -85.26 482.84 80
4 11/11/2025 21:00:54 -0.05, -89.49 -0.14, -89.86 43.09 80
5 11/14/2025 08:56:08 0.05, -89.53 -0.01, -89.29 27.05 80
6 11/14/2025 21:17:53 -0.09, -89.50 -1.04, -93.89 499.41 80
7 11/16/2025 20:54:09 -0.07, -89.52 0.11, -88.73 89.90 80
8 11/17/2025 09:15:46 0.11, -89.56 0.92, -93.30 426.40 80
9 11/19/2025 08:52:01 0.09, -89.57 -0.24, -88.14 163.11 80
10 11/19/2025 21:13:45 -0.13, -89.55 -0.84, -92.74 363.41 80
